Fryeburg, ME

8:43 AM EST on January 18, 2017 (GMT -0500)
Eastern Slopes Regional

Weather History for KIZG - June, 2013

Change the Weather History Date:

Saturday, June 1, 2013

  Actual Average Record
Temperature  
Mean Temperature 76 °F -  
Max Temperature 93 °F 69 °F 93 °F (2013)
Min Temperature 59 °F 42 °F 33 °F (2001)
Cooling Degree Days 11    
Growing Degree Days 26 (Base 50)    
Moisture  
Dew Point 62 °F    
Average Humidity 64    
Maximum Humidity 97    
Minimum Humidity 30    
Precipitation  
Precipitation 0.00 in - - ()
Sea Level Pressure  
Sea Level Pressure 29.87 in    
Wind  
Wind Speed 3 mph (SW)    
Max Wind Speed 13 mph    
Max Gust Speed 23 mph    
Visibility 10 miles    
Events      
Averages and records for this station are not official NWS values.
T = Trace of Precipitation, MM = Missing Value Source: NWS Daily Summary

Daily Weather History Graph

Daily Weather History Graph

Search for Another Location

Airport or City:

Trip Planner

Search our weather history database for the weather conditions in past years. The results will help you decide how hot, cold, wet, or windy it might be!

Date:

Astronomy

Jun. 01, 2013 Rise Set
Actual Time 5:03 AM EDT 8:19 PM EDT
Civil Twilight 4:28 AM EDT 8:55 PM EDT
Nautical Twilight 3:42 AM EDT 9:41 PM EDT
Astronomical Twilight 2:46 AM EDT 10:37 PM EDT
Moon 1:11 AM EDT (6/1) 1:33 PM EDT (6/1)
Length of Visible Light 16h 26m
Length of Day
15h 16m
Last Quarter, 41% of the Moon is Illuminated
Jun 1
Last Quarter
Jun 8
New
Jun 16
First Quarter
Jun 23
Full
Jun 30
Last Quarter

Hourly Weather History & Observations

Time (EDT) Temp. Heat Index Dew Point Humidity Pressure Visibility Wind Dir Wind Speed Gust Speed Precip Events Conditions
12:54 AM 63.0 °F - 60.1 °F 90% 29.93 in 10.0 mi Calm Calm - N/A   Clear
1:54 AM 62.1 °F - 60.1 °F 93% 29.92 in 10.0 mi Calm Calm - N/A   Clear
2:54 AM 61.0 °F - 60.1 °F 97% 29.92 in 10.0 mi Calm Calm - N/A   Clear
3:54 AM 60.1 °F - 59.0 °F 96% 29.92 in 9.0 mi Calm Calm - N/A   Clear
4:54 AM 59.0 °F - 57.9 °F 96% 29.92 in 7.0 mi Calm Calm - N/A   Clear
5:54 AM 61.0 °F - 59.0 °F 93% 29.93 in 9.0 mi Calm Calm - N/A   Clear
6:54 AM 68.0 °F - 63.0 °F 84% 29.93 in 10.0 mi Calm Calm - N/A   Clear
7:54 AM 75.0 °F - 64.0 °F 69% 29.93 in 10.0 mi Calm Calm - N/A   Clear
8:54 AM 82.0 °F 83.8 °F 64.9 °F 56% 29.92 in 10.0 mi SW 5.8 mph - N/A   Clear
9:54 AM 87.1 °F 89.2 °F 66.0 °F 49% 29.91 in 10.0 mi Variable 3.5 mph - N/A   Clear
10:54 AM 91.0 °F 91.9 °F 63.0 °F 39% 29.90 in 10.0 mi SW 9.2 mph - N/A   Clear
11:54 AM 91.9 °F 91.5 °F 60.1 °F 34% 29.88 in 10.0 mi SW 9.2 mph 23.0 mph N/A   Clear
12:54 PM 91.9 °F 91.5 °F 60.1 °F 34% 29.86 in 10.0 mi SW 12.7 mph 20.7 mph N/A   Clear
1:54 PM 93.0 °F 92.7 °F 60.1 °F 33% 29.85 in 10.0 mi SSW 11.5 mph 19.6 mph N/A   Clear
2:54 PM 93.9 °F 94.8 °F 62.1 °F 35% 29.84 in 10.0 mi WSW 10.4 mph - N/A   Partly Cloudy
3:54 PM 91.0 °F 90.9 °F 61.0 °F 36% 29.82 in 10.0 mi Variable 5.8 mph - N/A   Partly Cloudy
4:54 PM 93.0 °F 91.7 °F 57.0 °F 30% 29.81 in 10.0 mi WSW 12.7 mph 19.6 mph N/A   Clear
5:54 PM 88.0 °F 87.6 °F 60.1 °F 39% 29.82 in 10.0 mi WSW 8.1 mph - N/A   Mostly Cloudy
6:54 PM 82.9 °F 83.7 °F 62.1 °F 49% 29.82 in 10.0 mi Calm Calm - N/A   Partly Cloudy
7:54 PM 81.0 °F 81.7 °F 61.0 °F 50% 29.82 in 10.0 mi Calm Calm - N/A   Clear
8:54 PM 71.1 °F - 64.9 °F 81% 29.83 in 10.0 mi Calm Calm - N/A   Clear
9:54 PM 70.0 °F - 64.0 °F 81% 29.83 in 10.0 mi Calm Calm - N/A   Clear
10:54 PM 69.1 °F - 63.0 °F 81% 29.83 in 10.0 mi Calm Calm - N/A   Clear
11:54 PM 66.9 °F - 64.0 °F 90% 29.83 in 10.0 mi Calm Calm - N/A   Clear